,

(GMT )
Claresholm

Weather History for CWDK - October, 2011

Change the Weather History Date:

Wednesday, October 19, 2011

  Actual Average Record
Temperature  
Mean Temperature 49 °F -  
Max Temperature 69 °F - - ()
Min Temperature 29 °F - - ()
Degree Days  
Heating Degree Days 16    
Moisture  
Dew Point 26 °F    
Average Humidity 48    
Maximum Humidity 80    
Minimum Humidity 7    
Precipitation  
Precipitation 0.00 in - - ()
Sea Level Pressure  
Sea Level Pressure 29.86 in    
Wind  
Wind Speed 6 mph ()    
Max Wind Speed 21 mph    
Max Gust Speed 28 mph    
T = Trace of Precipitation, MM = Missing Value Source: Averaged Metar Reports

Daily Weather History Graph

Daily Weather History Graph

Search for Another Location

Airport or City:

Trip Planner

Search our weather history database for the weather conditions in past years. The results will help you decide how hot, cold, wet, or windy it might be!

Date:

Astronomy

Oct. 19, 2011 Rise Set
Actual Time 8:02 AM MDT 6:35 PM MDT
Civil Twilight 7:29 AM MDT 7:08 PM MDT
Nautical Twilight 6:52 AM MDT 7:45 PM MDT
Astronomical Twilight 6:14 AM MDT 8:23 PM MDT
Moon No Moon Rise 2:51 PM MDT (10/19)
Length of Visible Light 11h 38m
Length of Day
10h 32m
Waning Gibbous, 54% of the Moon is Illuminated
Oct 19
Waning Gibbous
Oct 19
Last Quarter
Oct 26
New
Nov 2
First Quarter
Nov 10
Full

Hourly Weather History & Observations

Time (MDT) Temp. Windchill Dew Point Humidity Pressure Visibility Wind Dir Wind Speed Gust Speed Precip Events Conditions
12:00 AM 36.1 °F 31.4 °F 27.0 °F 69% 30.04 in - SE 5.8 mph - N/A   Unknown
1:00 AM 34.2 °F 29.0 °F 27.3 °F 76% 30.02 in - SE 5.8 mph - N/A   Unknown
2:00 AM 34.7 °F 30.6 °F 27.5 °F 75% 29.99 in - SE 4.6 mph - N/A   Unknown
3:00 AM 31.8 °F - 26.4 °F 80% 29.97 in - South 2.3 mph - N/A   Unknown
4:00 AM 34.2 °F - 26.6 °F 74% 29.93 in - South 1.2 mph - N/A   Unknown
5:00 AM 31.5 °F 28.1 °F 25.7 °F 79% 29.92 in - SSE 3.5 mph - N/A   Unknown
6:00 AM 33 °F - 26 °F 65% 29.93 in - East 1.2 mph - -  
6:00 AM 31.5 °F - 25.7 °F 79% 29.93 in - East 1.2 mph - N/A   Unknown
7:00 AM 33.6 °F 30.6 °F 25.9 °F 73% 29.91 in - SE 3.5 mph - N/A   Unknown
8:00 AM 33.3 °F - 25.7 °F 74% 29.90 in - SW 2.3 mph - N/A   Unknown
9:00 AM 35.2 °F - 27.0 °F 72% 29.88 in - ENE 2.3 mph - N/A   Unknown
10:00 AM 43.7 °F 42.1 °F 32.0 °F 63% 29.85 in - SSW 3.5 mph - N/A   Unknown
11:00 AM 60.1 °F - 22.3 °F 23% 29.81 in - South 3.5 mph - N/A   Unknown
12:00 PM 68 °F - 19 °F 7% 29.79 in - West 20.7 mph - -  
12:00 PM 67.6 °F - 19.4 °F 16% 29.79 in - West 20.7 mph 27.6 mph N/A   Unknown
1:00 PM 67.1 °F - 22.1 °F 18% 29.79 in - West 18.4 mph - N/A   Unknown
2:00 PM 66.4 °F - 24.8 °F 21% 29.78 in - West 15.0 mph 20.7 mph N/A   Unknown
3:00 PM 65.1 °F - 25.5 °F 22% 29.78 in - West 15.0 mph - N/A   Unknown
4:00 PM 62.4 °F - 26.2 °F 25% 29.78 in - WSW 12.7 mph - N/A   Unknown
5:00 PM 59.7 °F - 28.4 °F 30% 29.78 in - WSW 10.4 mph - N/A   Unknown
6:00 PM 57 °F - 28 °F 21% 29.80 in - West 6.9 mph - -  
6:00 PM 57.0 °F - 28.0 °F 33% 29.80 in - West 6.9 mph - N/A   Unknown
7:00 PM 53.8 °F - 28.8 °F 38% 29.80 in - WNW 5.8 mph - N/A   Unknown
8:00 PM 50.2 °F - 29.7 °F 45% 29.81 in - SW 4.6 mph - N/A   Unknown
9:00 PM 54.7 °F - 29.7 °F 38% 29.78 in - West 9.2 mph - N/A   Unknown
10:00 PM 51.1 °F - 30.0 °F 44% 29.77 in - West 4.6 mph - N/A   Unknown
11:00 PM 52.9 °F - 30.7 °F 43% 29.76 in - West 12.7 mph 19.6 mph N/A   Unknown